Time,TemperatureF,DewpointF,PressureIn,WindDirection,WindDirectionDegrees,WindSpeedMPH,WindSpeedGustMPH,Humidity,HourlyPrecipIn,Conditions,Clouds,dailyrainin,SoftwareType,DateUTC
2013-09-14 00:03:00,65.1,64.8,29.71,West,270,1.0,2.0,99,0.00,,,0.00,meteohub,2013-09-14 07:03:00,
2013-09-14 00:08:00,65.1,64.8,29.71,West,270,0.0,1.0,99,0.00,,,0.00,meteohub,2013-09-14 07:08:00,
2013-09-14 00:13:00,65.1,64.8,29.71,West,270,1.0,2.0,99,0.00,,,0.00,meteohub,2013-09-14 07:13:00,
2013-09-14 00:18:00,65.1,64.8,29.71,West,270,0.0,2.0,99,0.00,,,0.00,meteohub,2013-09-14 07:18:00,
2013-09-14 00:23:00,65.1,64.8,29.71,West,270,2.0,2.0,99,0.00,,,0.00,meteohub,2013-09-14 07:23:00,
2013-09-14 00:28:00,65.1,64.8,29.71,West,270,2.0,2.0,99,0.00,,,0.00,meteohub,2013-09-14 07:28:00,
2013-09-14 00:33:00,64.9,64.6,29.71,West,270,2.0,2.0,99,0.00,,,0.00,meteohub,2013-09-14 07:33:00,
2013-09-14 00:38:00,64.8,64.4,29.70,West,270,1.0,2.0,99,0.00,,,0.00,meteohub,2013-09-14 07:38:00,
2013-09-14 00:43:00,64.8,64.4,29.70,West,270,1.0,2.0,99,0.00,,,0.00,meteohub,2013-09-14 07:43:00,
2013-09-14 00:48:00,64.6,64.2,29.70,West,270,2.0,2.0,99,0.00,,,0.00,meteohub,2013-09-14 07:48:00,
2013-09-14 00:53:00,64.8,64.4,29.70,West,270,1.0,2.0,99,0.00,,,0.00,meteohub,2013-09-14 07:53:00,
2013-09-14 00:58:00,64.6,64.2,29.71,West,270,1.0,3.0,99,0.00,,,0.00,meteohub,2013-09-14 07:58:00,
2013-09-14 01:03:00,64.4,64.0,29.70,West,270,0.0,3.0,99,0.00,,,0.00,meteohub,2013-09-14 08:03:00,
2013-09-14 01:08:00,64.4,64.0,29.70,West,270,1.0,2.0,99,0.00,,,0.00,meteohub,2013-09-14 08:08:00,
2013-09-14 01:13:00,64.0,63.7,29.70,West,270,0.0,1.0,99,0.00,,,0.00,meteohub,2013-09-14 08:13:00,
2013-09-14 01:18:00,64.0,63.7,29.70,West,270,0.0,1.0,99,0.00,,,0.00,meteohub,2013-09-14 08:18:00,
2013-09-14 01:23:00,64.0,63.7,29.70,West,270,1.0,1.0,99,0.00,,,0.00,meteohub,2013-09-14 08:23:00,
2013-09-14 01:28:00,63.9,63.5,29.70,West,270,2.0,2.0,99,0.00,,,0.00,meteohub,2013-09-14 08:28:00,
2013-09-14 01:33:00,64.0,63.7,29.70,West,270,0.0,2.0,99,0.00,,,0.00,meteohub,2013-09-14 08:33:00,
2013-09-14 01:38:00,64.0,63.7,29.70,West,270,0.0,2.0,99,0.00,,,0.00,meteohub,2013-09-14 08:38:00,
2013-09-14 01:43:00,63.9,63.5,29.70,West,270,0.0,2.0,99,0.00,,,0.00,meteohub,2013-09-14 08:43:00,
2013-09-14 01:48:00,63.7,63.3,29.70,West,270,0.0,2.0,99,0.00,,,0.00,meteohub,2013-09-14 08:48:00,
2013-09-14 01:53:00,63.5,63.1,29.71,West,270,2.0,2.0,99,0.00,,,0.00,meteohub,2013-09-14 08:53:00,
2013-09-14 01:58:00,63.3,63.0,29.70,West,270,0.0,1.0,99,0.00,,,0.00,meteohub,2013-09-14 08:58:00,
2013-09-14 02:03:00,63.3,63.0,29.70,West,270,0.0,2.0,99,0.00,,,0.00,meteohub,2013-09-14 09:03:00,
2013-09-14 02:08:00,63.1,62.8,29.70,West,270,2.0,2.0,99,0.00,,,0.00,meteohub,2013-09-14 09:08:00,
2013-09-14 02:13:00,63.5,63.1,29.70,West,270,0.0,2.0,99,0.00,,,0.00,meteohub,2013-09-14 09:13:00,
2013-09-14 02:18:00,63.3,63.0,29.70,West,270,0.0,2.0,99,0.00,,,0.00,meteohub,2013-09-14 09:18:00,
2013-09-14 02:23:00,63.3,63.0,29.70,West,270,1.0,2.0,99,0.00,,,0.00,meteohub,2013-09-14 09:23:00,
2013-09-14 02:29:00,63.1,62.8,29.70,West,270,1.0,2.0,99,0.00,,,0.00,meteohub,2013-09-14 09:29:00,
2013-09-14 02:34:00,63.0,62.6,29.70,West,270,0.0,1.0,99,0.00,,,0.00,meteohub,2013-09-14 09:34:00,
2013-09-14 02:39:00,62.8,62.4,29.70,West,270,1.0,1.0,99,0.00,,,0.00,meteohub,2013-09-14 09:39:00,
2013-09-14 02:44:00,62.6,62.2,29.70,West,270,1.0,1.0,99,0.00,,,0.00,meteohub,2013-09-14 09:44:00,
2013-09-14 02:49:00,62.6,62.2,29.70,West,270,0.0,1.0,99,0.00,,,0.00,meteohub,2013-09-14 09:49:00,
2013-09-14 02:54:00,62.6,62.2,29.70,West,270,0.0,2.0,99,0.00,,,0.00,meteohub,2013-09-14 09:54:00,
2013-09-14 02:59:00,62.8,62.4,29.70,West,270,1.0,2.0,99,0.00,,,0.00,meteohub,2013-09-14 09:59:00,
2013-09-14 03:04:00,62.8,62.4,29.70,West,270,1.0,2.0,99,0.00,,,0.00,meteohub,2013-09-14 10:04:00,
2013-09-14 03:09:00,62.6,62.2,29.70,West,270,0.0,2.0,99,0.00,,,0.00,meteohub,2013-09-14 10:09:00,
2013-09-14 03:14:00,62.4,62.1,29.70,West,270,0.0,2.0,99,0.00,,,0.00,meteohub,2013-09-14 10:14:00,
2013-09-14 03:19:00,62.4,62.1,29.69,West,270,0.0,2.0,99,0.00,,,0.00,meteohub,2013-09-14 10:19:00,
2013-09-14 03:23:00,62.4,62.1,29.69,West,270,0.0,2.0,99,0.00,,,0.00,meteohub,2013-09-14 10:23:00,
2013-09-14 03:29:00,62.4,62.1,29.69,West,270,0.0,2.0,99,0.00,,,0.00,meteohub,2013-09-14 10:29:00,
2013-09-14 03:34:00,62.2,61.9,29.69,West,270,0.0,1.0,99,0.00,,,0.00,meteohub,2013-09-14 10:34:00,
2013-09-14 03:39:00,62.2,61.9,29.69,West,270,0.0,1.0,99,0.00,,,0.00,meteohub,2013-09-14 10:39:00,
2013-09-14 03:44:00,62.6,62.2,29.69,West,270,2.0,2.0,99,0.00,,,0.00,meteohub,2013-09-14 10:44:00,
2013-09-14 03:49:00,62.6,62.2,29.69,West,270,0.0,2.0,99,0.00,,,0.00,meteohub,2013-09-14 10:49:00,
2013-09-14 03:54:00,62.6,62.2,29.69,West,270,0.0,2.0,99,0.00,,,0.00,meteohub,2013-09-14 10:54:00,
2013-09-14 03:59:00,62.2,61.9,29.69,West,270,0.0,2.0,99,0.00,,,0.00,meteohub,2013-09-14 10:59:00,
2013-09-14 04:04:00,62.2,61.9,29.69,West,270,1.0,2.0,99,0.00,,,0.00,meteohub,2013-09-14 11:04:00,
2013-09-14 04:09:00,62.2,61.9,29.70,West,270,0.0,1.0,99,0.00,,,0.00,meteohub,2013-09-14 11:09:00,
2013-09-14 04:14:00,62.2,61.9,29.70,West,270,0.0,1.0,99,0.00,,,0.00,meteohub,2013-09-14 11:14:00,
2013-09-14 04:19:00,62.2,61.9,29.70,West,270,0.0,1.0,99,0.00,,,0.00,meteohub,2013-09-14 11:19:00,
2013-09-14 04:24:00,62.1,61.7,29.70,West,270,0.0,2.0,99,0.00,,,0.00,meteohub,2013-09-14 11:24:00,
2013-09-14 04:29:00,62.2,61.9,29.70,West,270,0.0,2.0,99,0.00,,,0.00,meteohub,2013-09-14 11:29:00,
2013-09-14 04:34:00,62.2,61.9,29.70,West,270,0.0,2.0,99,0.00,,,0.00,meteohub,2013-09-14 11:34:00,
2013-09-14 04:39:00,62.2,61.9,29.69,West,270,0.0,2.0,99,0.00,,,0.00,meteohub,2013-09-14 11:39:00,
2013-09-14 04:44:00,62.1,61.7,29.70,West,270,1.0,2.0,99,0.00,,,0.00,meteohub,2013-09-14 11:44:00,
2013-09-14 04:49:00,62.2,61.9,29.70,West,270,2.0,2.0,99,0.00,,,0.00,meteohub,2013-09-14 11:49:00,
2013-09-14 04:54:00,62.2,61.9,29.70,West,270,2.0,2.0,99,0.00,,,0.00,meteohub,2013-09-14 11:54:00,
2013-09-14 04:59:00,62.4,62.1,29.70,West,270,2.0,2.0,99,0.00,,,0.00,meteohub,2013-09-14 11:59:00,
2013-09-14 05:04:00,62.4,62.1,29.70,West,270,2.0,2.0,99,0.00,,,0.00,meteohub,2013-09-14 12:04:00,
2013-09-14 05:09:00,62.6,62.2,29.70,West,270,2.0,2.0,99,0.00,,,0.00,meteohub,2013-09-14 12:09:00,
2013-09-14 05:14:00,62.4,62.1,29.70,West,270,2.0,2.0,99,0.00,,,0.00,meteohub,2013-09-14 12:14:00,
2013-09-14 05:19:00,62.2,61.9,29.70,West,270,2.0,2.0,99,0.00,,,0.00,meteohub,2013-09-14 12:19:00,
2013-09-14 05:24:00,62.2,61.9,29.70,West,270,2.0,2.0,99,0.00,,,0.00,meteohub,2013-09-14 12:24:00,
2013-09-14 05:29:00,62.1,61.7,29.70,West,270,2.0,2.0,99,0.00,,,0.00,meteohub,2013-09-14 12:29:00,
2013-09-14 05:34:00,62.1,61.7,29.70,West,270,3.0,3.0,99,0.00,,,0.00,meteohub,2013-09-14 12:34:00,
2013-09-14 05:39:00,62.1,61.7,29.70,WNW,293,3.0,3.0,99,0.00,,,0.00,meteohub,2013-09-14 12:39:00,
2013-09-14 05:44:00,62.1,61.7,29.70,West,270,2.0,4.0,99,0.00,,,0.00,meteohub,2013-09-14 12:44:00,
2013-09-14 05:49:00,62.1,61.7,29.70,West,270,2.0,4.0,99,0.00,,,0.00,meteohub,2013-09-14 12:49:00,
2013-09-14 05:54:00,62.1,61.7,29.70,West,270,1.0,4.0,99,0.00,,,0.00,meteohub,2013-09-14 12:54:00,
2013-09-14 05:59:00,62.1,61.7,29.70,West,270,2.0,4.0,99,0.00,,,0.00,meteohub,2013-09-14 12:59:00,
2013-09-14 06:04:00,62.1,61.7,29.70,West,270,2.0,3.0,99,0.00,,,0.00,meteohub,2013-09-14 13:04:00,
2013-09-14 06:09:00,62.1,61.7,29.70,West,270,2.0,4.0,99,0.00,,,0.00,meteohub,2013-09-14 13:09:00,
2013-09-14 06:14:00,62.1,61.7,29.70,West,270,2.0,4.0,99,0.00,,,0.00,meteohub,2013-09-14 13:14:00,
2013-09-14 06:19:00,62.1,61.7,29.70,West,270,2.0,4.0,99,0.00,,,0.00,meteohub,2013-09-14 13:19:00,
2013-09-14 06:24:00,62.1,61.7,29.70,West,270,2.0,3.0,99,0.00,,,0.00,meteohub,2013-09-14 13:24:00,
2013-09-14 06:29:00,62.1,61.7,29.71,West,270,2.0,3.0,99,0.00,,,0.00,meteohub,2013-09-14 13:29:00,
2013-09-14 06:34:00,62.2,61.9,29.71,West,270,2.0,3.0,99,0.00,,,0.00,meteohub,2013-09-14 13:34:00,
2013-09-14 06:39:00,62.2,61.9,29.71,West,270,1.0,3.0,99,0.00,,,0.00,meteohub,2013-09-14 13:39:00,
2013-09-14 06:44:00,62.2,61.9,29.71,West,270,2.0,3.0,99,0.00,,,0.00,meteohub,2013-09-14 13:44:00,
2013-09-14 06:49:00,62.2,61.9,29.71,West,270,0.0,3.0,99,0.00,,,0.00,meteohub,2013-09-14 13:49:00,
2013-09-14 06:54:00,62.4,62.1,29.71,West,270,2.0,3.0,99,0.00,,,0.00,meteohub,2013-09-14 13:54:00,
2013-09-14 06:59:00,62.4,62.1,29.72,West,270,2.0,3.0,99,0.00,,,0.00,meteohub,2013-09-14 13:59:00,
2013-09-14 07:04:00,62.2,61.9,29.72,NW,315,3.0,4.0,99,0.00,,,0.00,meteohub,2013-09-14 14:04:00,
2013-09-14 07:09:00,62.4,62.1,29.72,NW,315,2.0,4.0,99,0.00,,,0.00,meteohub,2013-09-14 14:09:00,
2013-09-14 07:14:00,62.6,62.2,29.72,NW,315,2.0,4.0,99,0.00,,,0.00,meteohub,2013-09-14 14:14:00,
2013-09-14 07:19:00,62.8,62.4,29.72,NW,315,4.0,4.0,99,0.00,,,0.00,meteohub,2013-09-14 14:19:00,
2013-09-14 07:24:00,62.6,62.2,29.72,NW,315,2.0,4.0,99,0.00,,,0.00,meteohub,2013-09-14 14:24:00,
2013-09-14 07:29:00,62.8,62.4,29.73,NW,315,0.0,4.0,99,0.00,,,0.00,meteohub,2013-09-14 14:29:00,
2013-09-14 07:34:00,63.0,62.6,29.72,NW,315,3.0,4.0,99,0.00,,,0.00,meteohub,2013-09-14 14:34:00,
2013-09-14 07:39:00,62.8,62.4,29.73,NW,315,2.0,4.0,99,0.00,,,0.00,meteohub,2013-09-14 14:39:00,
2013-09-14 07:44:00,63.1,62.8,29.73,NW,315,1.0,3.0,99,0.00,,,0.00,meteohub,2013-09-14 14:44:00,
2013-09-14 07:49:00,63.3,63.0,29.73,NW,315,1.0,3.0,99,0.00,,,0.00,meteohub,2013-09-14 14:49:00,
2013-09-14 07:54:00,63.3,63.0,29.72,NW,315,2.0,2.0,99,0.00,,,0.00,meteohub,2013-09-14 14:54:00,
2013-09-14 07:59:00,63.5,63.1,29.73,NW,315,2.0,2.0,99,0.00,,,0.00,meteohub,2013-09-14 14:59:00,
2013-09-14 08:04:00,63.5,63.1,29.73,NW,315,2.0,2.0,99,0.00,,,0.00,meteohub,2013-09-14 15:04:00,
2013-09-14 08:09:00,63.9,63.5,29.73,NW,315,3.0,3.0,99,0.00,,,0.00,meteohub,2013-09-14 15:09:00,
2013-09-14 08:14:00,64.2,63.9,29.73,NW,315,0.0,2.0,99,0.00,,,0.00,meteohub,2013-09-14 15:14:00,
2013-09-14 08:19:00,64.2,63.9,29.73,NW,315,2.0,3.0,99,0.00,,,0.00,meteohub,2013-09-14 15:19:00,
2013-09-14 08:24:00,64.4,64.0,29.73,NW,315,1.0,3.0,99,0.00,,,0.00,meteohub,2013-09-14 15:24:00,
2013-09-14 08:29:00,64.4,64.0,29.73,NW,315,2.0,2.0,99,0.00,,,0.00,meteohub,2013-09-14 15:29:00,
2013-09-14 08:34:00,65.1,64.8,29.73,NW,315,1.0,4.0,99,0.00,,,0.00,meteohub,2013-09-14 15:34:00,
2013-09-14 08:39:00,65.5,65.1,29.73,NW,315,3.0,4.0,99,0.00,,,0.00,meteohub,2013-09-14 15:39:00,
2013-09-14 08:44:00,65.3,64.9,29.73,West,270,2.0,4.0,99,0.00,,,0.00,meteohub,2013-09-14 15:44:00,
2013-09-14 08:49:00,65.5,65.1,29.73,West,270,2.0,4.0,99,0.00,,,0.00,meteohub,2013-09-14 15:49:00,
2013-09-14 08:54:00,65.5,65.1,29.73,NW,315,2.0,4.0,99,0.00,,,0.00,meteohub,2013-09-14 15:54:00,
2013-09-14 08:59:00,65.3,64.9,29.73,NW,315,3.0,4.0,99,0.00,,,0.00,meteohub,2013-09-14 15:59:00,
2013-09-14 09:04:00,65.8,65.5,29.73,NW,315,4.0,4.0,99,0.00,,,0.00,meteohub,2013-09-14 16:04:00,
2013-09-14 09:09:00,66.2,65.8,29.73,WNW,293,4.0,4.0,99,0.00,,,0.00,meteohub,2013-09-14 16:09:00,
2013-09-14 09:14:00,67.1,66.7,29.73,NW,315,2.0,4.0,99,0.00,,,0.00,meteohub,2013-09-14 16:14:00,
2013-09-14 09:19:00,66.4,66.0,29.73,NW,315,7.0,7.0,99,0.00,,,0.00,meteohub,2013-09-14 16:19:00,
2013-09-14 09:24:00,66.2,65.8,29.74,West,270,3.0,7.0,99,0.00,,,0.00,meteohub,2013-09-14 16:24:00,
2013-09-14 09:29:00,67.1,66.7,29.74,South,180,4.0,7.0,99,0.00,,,0.00,meteohub,2013-09-14 16:29:00,
2013-09-14 09:34:00,67.5,67.1,29.73,WNW,293,4.0,7.0,99,0.00,,,0.00,meteohub,2013-09-14 16:34:00,
2013-09-14 09:39:00,68.2,67.8,29.74,NW,315,4.0,6.0,99,0.00,,,0.00,meteohub,2013-09-14 16:39:00,
2013-09-14 09:44:00,69.1,68.7,29.73,West,270,4.0,6.0,99,0.00,,,0.00,meteohub,2013-09-14 16:44:00,
2013-09-14 09:49:00,70.2,68.0,29.73,NW,315,4.0,6.0,93,0.00,,,0.00,meteohub,2013-09-14 16:49:00,
2013-09-14 09:54:00,71.4,68.7,29.73,NW,315,4.0,6.0,91,0.00,,,0.00,meteohub,2013-09-14 16:54:00,
2013-09-14 09:59:00,72.0,67.5,29.73,West,270,4.0,5.0,86,0.00,,,0.00,meteohub,2013-09-14 16:59:00,
2013-09-14 10:04:00,71.6,67.5,29.73,WNW,293,4.0,6.0,87,0.00,,,0.00,meteohub,2013-09-14 17:04:00,
2013-09-14 10:09:00,73.0,68.2,29.73,NW,315,4.0,7.0,85,0.00,,,0.00,meteohub,2013-09-14 17:09:00,
2013-09-14 10:14:00,73.8,67.6,29.73,NW,315,4.0,7.0,81,0.00,,,0.00,meteohub,2013-09-14 17:14:00,
2013-09-14 10:19:00,73.4,66.9,29.73,West,270,7.0,7.0,80,0.00,,,0.00,meteohub,2013-09-14 17:19:00,
2013-09-14 10:24:00,72.5,67.1,29.73,NW,315,5.0,7.0,83,0.00,,,0.00,meteohub,2013-09-14 17:24:00,
2013-09-14 10:29:00,73.4,67.6,29.73,NW,315,4.0,9.0,82,0.00,,,0.00,meteohub,2013-09-14 17:29:00,
2013-09-14 10:34:00,73.2,66.7,29.73,West,270,6.0,9.0,80,0.00,,,0.00,meteohub,2013-09-14 17:34:00,
2013-09-14 10:39:00,72.7,66.9,29.73,NW,315,6.0,9.0,82,0.00,,,0.00,meteohub,2013-09-14 17:39:00,
2013-09-14 10:44:00,73.4,67.3,29.73,WNW,293,7.0,9.0,81,0.00,,,0.00,meteohub,2013-09-14 17:44:00,
2013-09-14 10:49:00,73.2,66.7,29.73,West,270,7.0,9.0,80,0.00,,,0.00,meteohub,2013-09-14 17:49:00,
2013-09-14 10:54:00,73.0,67.3,29.73,North,0,6.0,9.0,82,0.00,,,0.00,meteohub,2013-09-14 17:54:00,
2013-09-14 10:59:00,73.2,67.1,29.73,West,270,7.0,8.0,81,0.00,,,0.00,meteohub,2013-09-14 17:59:00,
2013-09-14 11:04:00,73.4,67.6,29.73,West,270,4.0,9.0,82,0.00,,,0.00,meteohub,2013-09-14 18:04:00,
2013-09-14 11:09:00,73.8,67.3,29.72,WNW,293,7.0,9.0,80,0.00,,,0.00,meteohub,2013-09-14 18:09:00,
2013-09-14 11:14:00,73.9,67.1,29.72,WSW,248,7.0,9.0,79,0.00,,,0.00,meteohub,2013-09-14 18:14:00,
2013-09-14 11:19:00,73.8,67.3,29.73,West,270,8.0,8.0,80,0.00,,,0.00,meteohub,2013-09-14 18:19:00,
2013-09-14 11:24:00,74.1,67.6,29.72,NW,315,4.0,8.0,80,0.00,,,0.00,meteohub,2013-09-14 18:24:00,
2013-09-14 11:29:00,74.3,67.3,29.72,NW,315,6.0,8.0,79,0.00,,,0.00,meteohub,2013-09-14 18:29:00,
2013-09-14 11:34:00,74.1,67.6,29.73,West,270,7.0,8.0,80,0.00,,,0.00,meteohub,2013-09-14 18:34:00,
2013-09-14 11:39:00,73.8,67.3,29.72,West,270,10.0,10.0,80,0.00,,,0.00,meteohub,2013-09-14 18:39:00,
2013-09-14 11:44:00,73.2,67.8,29.73,WNW,293,7.0,8.0,83,0.00,,,0.00,meteohub,2013-09-14 18:44:00,
2013-09-14 11:49:00,73.6,68.2,29.72,West,270,4.0,10.0,83,0.00,,,0.00,meteohub,2013-09-14 18:49:00,
2013-09-14 11:54:00,73.6,68.2,29.72,WNW,293,8.0,10.0,83,0.00,,,0.00,meteohub,2013-09-14 18:54:00,
2013-09-14 11:59:00,73.6,68.2,29.72,West,270,8.0,10.0,83,0.00,,,0.00,meteohub,2013-09-14 18:59:00,
2013-09-14 12:04:00,73.2,67.5,29.72,West,270,8.0,10.0,82,0.00,,,0.00,meteohub,2013-09-14 19:04:00,
2013-09-14 12:09:00,73.0,68.2,29.72,West,270,8.0,10.0,85,0.00,,,0.00,meteohub,2013-09-14 19:09:00,
2013-09-14 12:14:00,73.0,68.0,29.71,WNW,293,10.0,10.0,84,0.00,,,0.00,meteohub,2013-09-14 19:14:00,
2013-09-14 12:19:00,73.2,68.2,29.71,NW,315,7.0,10.0,84,0.00,,,0.00,meteohub,2013-09-14 19:19:00,
2013-09-14 12:24:00,73.4,68.0,29.71,WNW,293,7.0,11.0,83,0.00,,,0.00,meteohub,2013-09-14 19:24:00,
2013-09-14 12:30:00,73.4,68.0,29.71,West,270,8.0,11.0,83,0.00,,,0.00,meteohub,2013-09-14 19:30:00,
2013-09-14 12:35:00,73.8,68.4,29.71,West,270,8.0,12.0,83,0.00,,,0.00,meteohub,2013-09-14 19:35:00,
2013-09-14 12:40:00,74.3,68.0,29.71,West,270,8.0,14.0,81,0.00,,,0.00,meteohub,2013-09-14 19:40:00,
2013-09-14 12:45:00,73.9,68.2,29.71,West,270,10.0,14.0,82,0.00,,,0.00,meteohub,2013-09-14 19:45:00,
2013-09-14 12:50:00,74.7,68.0,29.70,West,270,11.0,14.0,80,0.00,,,0.00,meteohub,2013-09-14 19:50:00,
2013-09-14 12:55:00,75.0,68.4,29.70,WNW,293,7.0,12.0,80,0.00,,,0.00,meteohub,2013-09-14 19:55:00,
2013-09-14 13:00:00,74.8,68.2,29.70,West,270,8.0,12.0,80,0.00,,,0.00,meteohub,2013-09-14 20:00:00,
2013-09-14 13:05:00,73.9,67.8,29.70,NW,315,10.0,12.0,81,0.00,,,0.00,meteohub,2013-09-14 20:05:00,
2013-09-14 13:10:00,74.5,68.2,29.70,West,270,8.0,11.0,81,0.00,,,0.00,meteohub,2013-09-14 20:10:00,
2013-09-14 13:15:00,75.2,68.5,29.70,SW,225,9.0,11.0,80,0.00,,,0.00,meteohub,2013-09-14 20:15:00,
2013-09-14 13:20:00,75.2,68.2,29.69,NW,315,11.0,11.0,79,0.00,,,0.00,meteohub,2013-09-14 20:20:00,
2013-09-14 13:25:00,74.8,68.5,29.69,NW,315,9.0,12.0,81,0.00,,,0.00,meteohub,2013-09-14 20:25:00,
2013-09-14 13:30:00,74.8,68.2,29.69,West,270,8.0,12.0,80,0.00,,,0.00,meteohub,2013-09-14 20:30:00,
2013-09-14 13:35:00,75.2,68.5,29.69,North,0,7.0,13.0,80,0.00,,,0.00,meteohub,2013-09-14 20:35:00,
2013-09-14 13:40:00,76.1,68.4,29.68,NW,315,11.0,13.0,77,0.00,,,0.00,meteohub,2013-09-14 20:40:00,
2013-09-14 13:45:00,74.8,68.2,29.68,West,270,8.0,12.0,80,0.00,,,0.00,meteohub,2013-09-14 20:45:00,
2013-09-14 13:50:00,75.2,68.2,29.68,NW,315,8.0,12.0,79,0.00,,,0.00,meteohub,2013-09-14 20:50:00,
2013-09-14 13:55:00,74.8,68.2,29.68,West,270,9.0,12.0,80,0.00,,,0.00,meteohub,2013-09-14 20:55:00,
2013-09-14 14:00:00,74.8,68.5,29.68,WNW,293,8.0,12.0,81,0.00,,,0.00,meteohub,2013-09-14 21:00:00,
2013-09-14 14:05:00,74.3,68.0,29.68,WNW,293,8.0,11.0,81,0.00,,,0.00,meteohub,2013-09-14 21:05:00,
2013-09-14 14:10:00,74.5,67.8,29.68,West,270,11.0,13.0,80,0.00,,,0.00,meteohub,2013-09-14 21:10:00,
2013-09-14 14:15:00,74.8,68.2,29.68,NW,315,8.0,13.0,80,0.00,,,0.00,meteohub,2013-09-14 21:15:00,
2013-09-14 14:20:00,75.0,67.6,29.67,NW,315,9.0,13.0,78,0.00,,,0.00,meteohub,2013-09-14 21:20:00,
2013-09-14 14:25:00,75.4,68.0,29.68,NW,315,8.0,12.0,78,0.00,,,0.00,meteohub,2013-09-14 21:25:00,
2013-09-14 14:30:00,75.0,68.0,29.67,WNW,293,10.0,11.0,79,0.00,,,0.00,meteohub,2013-09-14 21:30:00,
2013-09-14 14:35:00,74.7,67.3,29.66,West,270,11.0,11.0,78,0.00,,,0.00,meteohub,2013-09-14 21:35:00,
2013-09-14 14:40:00,74.5,67.8,29.66,WNW,293,9.0,12.0,80,0.00,,,0.00,meteohub,2013-09-14 21:40:00,
2013-09-14 14:45:00,73.9,67.1,29.66,WNW,293,12.0,13.0,79,0.00,,,0.00,meteohub,2013-09-14 21:45:00,
2013-09-14 14:50:00,73.6,67.5,29.67,West,270,11.0,13.0,81,0.00,,,0.00,meteohub,2013-09-14 21:50:00,
2013-09-14 14:55:00,73.6,67.8,29.66,NW,315,7.0,12.0,82,0.00,,,0.00,meteohub,2013-09-14 21:55:00,
2013-09-14 15:00:00,73.6,67.8,29.66,NNW,338,10.0,12.0,82,0.00,,,0.00,meteohub,2013-09-14 22:00:00,
2013-09-14 15:05:00,73.2,67.8,29.66,NW,315,10.0,13.0,83,0.00,,,0.00,meteohub,2013-09-14 22:05:00,
2013-09-14 15:10:00,73.6,67.5,29.66,West,270,11.0,13.0,81,0.00,,,0.00,meteohub,2013-09-14 22:10:00,
2013-09-14 15:15:00,73.6,67.8,29.66,West,270,8.0,12.0,82,0.00,,,0.00,meteohub,2013-09-14 22:15:00,
2013-09-14 15:20:00,73.8,67.6,29.65,NW,315,12.0,12.0,81,0.00,,,0.00,meteohub,2013-09-14 22:20:00,
2013-09-14 15:25:00,73.9,68.2,29.65,NW,315,8.0,12.0,82,0.00,,,0.00,meteohub,2013-09-14 22:25:00,
2013-09-14 15:30:00,74.3,68.0,29.65,West,270,6.0,12.0,81,0.00,,,0.00,meteohub,2013-09-14 22:30:00,
2013-09-14 15:35:00,74.7,67.6,29.65,South,180,5.0,12.0,79,0.00,,,0.00,meteohub,2013-09-14 22:35:00,
2013-09-14 15:40:00,75.4,68.0,29.65,SW,225,7.0,11.0,78,0.00,,,0.00,meteohub,2013-09-14 22:40:00,
2013-09-14 15:45:00,75.7,68.0,29.65,WNW,293,8.0,11.0,77,0.00,,,0.00,meteohub,2013-09-14 22:45:00,
2013-09-14 15:49:00,75.6,67.8,29.65,West,270,9.0,11.0,77,0.00,,,0.00,meteohub,2013-09-14 22:49:00,
2013-09-14 15:54:00,76.1,68.0,29.65,NW,315,8.0,9.0,76,0.00,,,0.00,meteohub,2013-09-14 22:54:00,
2013-09-14 15:59:00,76.5,68.0,29.65,West,270,6.0,9.0,75,0.00,,,0.00,meteohub,2013-09-14 22:59:00,
2013-09-14 16:04:00,76.8,67.8,29.64,SW,225,7.0,9.0,74,0.00,,,0.00,meteohub,2013-09-14 23:04:00,
2013-09-14 16:09:00,77.7,68.0,29.64,West,270,6.0,9.0,72,0.00,,,0.00,meteohub,2013-09-14 23:09:00,
2013-09-14 16:14:00,78.4,67.8,29.64,West,270,5.0,9.0,70,0.00,,,0.00,meteohub,2013-09-14 23:14:00,
2013-09-14 16:19:00,79.2,68.2,29.64,NW,315,2.0,8.0,69,0.00,,,0.00,meteohub,2013-09-14 23:19:00,
2013-09-14 16:24:00,80.2,67.8,29.63,West,270,4.0,8.0,66,0.00,,,0.00,meteohub,2013-09-14 23:24:00,
2013-09-14 16:29:00,81.1,66.9,29.63,West,270,5.0,8.0,62,0.00,,,0.00,meteohub,2013-09-14 23:29:00,
2013-09-14 16:34:00,81.3,66.6,29.63,West,270,7.0,9.0,61,0.00,,,0.00,meteohub,2013-09-14 23:34:00,
2013-09-14 16:39:00,81.9,67.1,29.63,NW,315,6.0,9.0,61,0.00,,,0.00,meteohub,2013-09-14 23:39:00,
2013-09-14 16:44:00,82.8,67.5,29.63,WNW,293,4.0,9.0,60,0.00,,,0.00,meteohub,2013-09-14 23:44:00,
2013-09-14 16:49:00,83.1,67.3,29.64,WNW,293,3.0,7.0,59,0.00,,,0.00,meteohub,2013-09-14 23:49:00,
2013-09-14 16:54:00,84.0,67.6,29.63,West,270,3.0,7.0,58,0.00,,,0.00,meteohub,2013-09-14 23:54:00,
2013-09-14 16:59:00,84.4,67.5,29.63,SW,225,4.0,6.0,57,0.00,,,0.00,meteohub,2013-09-14 23:59:00,
2013-09-14 17:04:00,84.0,67.1,29.63,West,270,4.0,6.0,57,0.00,,,0.00,meteohub,2013-09-15 00:04:00,
2013-09-14 17:09:00,83.8,68.0,29.63,NW,315,2.0,7.0,59,0.00,,,0.00,meteohub,2013-09-15 00:09:00,
2013-09-14 17:14:00,84.4,67.5,29.63,NW,315,5.0,7.0,57,0.00,,,0.00,meteohub,2013-09-15 00:14:00,
2013-09-14 17:20:00,85.3,66.2,29.63,NE,45,4.0,7.0,53,0.00,,,0.00,meteohub,2013-09-15 00:20:00,
2013-09-14 17:25:00,86.4,64.4,29.63,NW,315,4.0,5.0,48,0.00,,,0.00,meteohub,2013-09-15 00:25:00,
2013-09-14 17:29:00,86.5,63.3,29.63,NW,315,6.0,6.0,46,0.00,,,0.00,meteohub,2013-09-15 00:29:00,
2013-09-14 17:35:00,85.5,63.0,29.63,NW,315,4.0,8.0,47,0.00,,,0.00,meteohub,2013-09-15 00:35:00,
2013-09-14 17:40:00,85.3,63.3,29.63,NNE,23,4.0,8.0,48,0.00,,,0.00,meteohub,2013-09-15 00:40:00,
2013-09-14 17:45:00,85.1,63.1,29.63,North,0,6.0,8.0,48,0.00,,,0.00,meteohub,2013-09-15 00:45:00,
2013-09-14 17:49:00,83.8,63.1,29.63,NW,315,6.0,8.0,50,0.00,,,0.00,meteohub,2013-09-15 00:49:00,
2013-09-14 17:55:00,82.8,62.8,29.64,North,0,4.0,8.0,51,0.00,,,0.00,meteohub,2013-09-15 00:55:00,
2013-09-14 18:00:00,82.6,62.1,29.63,NE,45,4.0,8.0,50,0.00,,,0.00,meteohub,2013-09-15 01:00:00,
2013-09-14 18:05:00,81.9,62.4,29.63,North,0,4.0,7.0,52,0.00,,,0.00,meteohub,2013-09-15 01:05:00,
2013-09-14 18:10:00,81.1,61.9,29.63,North,0,4.0,7.0,52,0.00,,,0.00,meteohub,2013-09-15 01:10:00,
2013-09-14 18:15:00,80.6,60.8,29.63,North,0,4.0,7.0,51,0.00,,,0.00,meteohub,2013-09-15 01:15:00,
2013-09-14 18:20:00,79.9,59.5,29.64,North,0,4.0,7.0,50,0.00,,,0.00,meteohub,2013-09-15 01:20:00,
2013-09-14 18:25:00,79.7,60.4,29.64,North,0,3.0,6.0,52,0.00,,,0.00,meteohub,2013-09-15 01:25:00,
2013-09-14 18:30:00,79.3,61.2,29.64,North,0,5.0,6.0,54,0.00,,,0.00,meteohub,2013-09-15 01:30:00,
2013-09-14 18:35:00,79.0,61.9,29.64,North,0,2.0,6.0,56,0.00,,,0.00,meteohub,2013-09-15 01:35:00,
2013-09-14 18:40:00,78.6,61.2,29.64,North,0,5.0,6.0,55,0.00,,,0.00,meteohub,2013-09-15 01:40:00,
2013-09-14 18:45:00,78.3,61.7,29.64,North,0,4.0,6.0,57,0.00,,,0.00,meteohub,2013-09-15 01:45:00,
2013-09-14 18:50:00,77.7,62.2,29.64,North,0,4.0,5.0,59,0.00,,,0.00,meteohub,2013-09-15 01:50:00,
2013-09-14 18:55:00,77.2,62.2,29.64,North,0,3.0,5.0,60,0.00,,,0.00,meteohub,2013-09-15 01:55:00,
2013-09-14 19:00:00,76.8,62.8,29.64,North,0,3.0,5.0,62,0.00,,,0.00,meteohub,2013-09-15 02:00:00,
2013-09-14 19:05:00,76.3,63.1,29.64,North,0,2.0,5.0,64,0.00,,,0.00,meteohub,2013-09-15 02:05:00,
2013-09-14 19:10:00,75.7,63.5,29.64,North,0,2.0,5.0,66,0.00,,,0.00,meteohub,2013-09-15 02:10:00,
2013-09-14 19:15:00,75.4,63.7,29.65,North,0,3.0,5.0,67,0.00,,,0.00,meteohub,2013-09-15 02:15:00,
2013-09-14 19:20:00,75.0,64.2,29.65,NE,45,3.0,5.0,69,0.00,,,0.00,meteohub,2013-09-15 02:20:00,
2013-09-14 19:25:00,74.7,64.6,29.65,North,0,4.0,5.0,71,0.00,,,0.00,meteohub,2013-09-15 02:25:00,
2013-09-14 19:30:00,74.3,64.8,29.65,North,0,3.0,4.0,72,0.00,,,0.00,meteohub,2013-09-15 02:30:00,
2013-09-14 19:35:00,73.9,64.8,29.65,North,0,4.0,4.0,73,0.00,,,0.00,meteohub,2013-09-15 02:35:00,
2013-09-14 19:40:00,73.6,64.8,29.66,North,0,2.0,4.0,74,0.00,,,0.00,meteohub,2013-09-15 02:40:00,
2013-09-14 19:45:00,73.2,64.8,29.66,North,0,3.0,4.0,75,0.00,,,0.00,meteohub,2013-09-15 02:45:00,
2013-09-14 19:50:00,73.0,64.6,29.66,North,0,2.0,4.0,75,0.00,,,0.00,meteohub,2013-09-15 02:50:00,
2013-09-14 19:55:00,72.7,63.9,29.66,North,0,4.0,4.0,74,0.00,,,0.00,meteohub,2013-09-15 02:55:00,
2013-09-14 20:00:00,72.3,63.1,29.66,North,0,4.0,4.0,73,0.00,,,0.00,meteohub,2013-09-15 03:00:00,
2013-09-14 20:05:00,72.1,63.0,29.66,North,0,2.0,4.0,73,0.00,,,0.00,meteohub,2013-09-15 03:05:00,
2013-09-14 20:10:00,71.8,62.6,29.67,North,0,3.0,4.0,73,0.00,,,0.00,meteohub,2013-09-15 03:10:00,
2013-09-14 20:15:00,71.6,62.4,29.67,North,0,2.0,4.0,73,0.00,,,0.00,meteohub,2013-09-15 03:15:00,
2013-09-14 20:20:00,71.4,62.2,29.67,North,0,2.0,4.0,73,0.00,,,0.00,meteohub,2013-09-15 03:20:00,
2013-09-14 20:25:00,71.1,61.9,29.67,North,0,0.0,4.0,73,0.00,,,0.00,meteohub,2013-09-15 03:25:00,
2013-09-14 20:30:00,70.9,62.2,29.68,North,0,1.0,4.0,74,0.00,,,0.00,meteohub,2013-09-15 03:30:00,
2013-09-14 20:35:00,70.7,62.1,29.67,North,0,0.0,2.0,74,0.00,,,0.00,meteohub,2013-09-15 03:35:00,
2013-09-14 20:40:00,70.3,61.7,29.68,North,0,0.0,2.0,74,0.00,,,0.00,meteohub,2013-09-15 03:40:00,
2013-09-14 20:45:00,70.2,61.9,29.67,North,0,0.0,2.0,75,0.00,,,0.00,meteohub,2013-09-15 03:45:00,
2013-09-14 20:50:00,69.8,61.9,29.68,North,0,0.0,2.0,76,0.00,,,0.00,meteohub,2013-09-15 03:50:00,
2013-09-14 20:55:00,69.4,61.5,29.68,North,0,0.0,2.0,76,0.00,,,0.00,meteohub,2013-09-15 03:55:00,
2013-09-14 21:00:00,69.3,61.7,29.68,North,0,0.0,0.0,77,0.00,,,0.00,meteohub,2013-09-15 04:00:00,
2013-09-14 21:01:00,69.3,61.7,29.68,North,0,0.0,0.0,77,0.00,,,0.00,meteohub,2013-09-15 04:01:00,
2013-09-14 21:04:00,69.1,61.5,29.68,North,0,0.0,0.0,77,0.00,,,0.00,meteohub,2013-09-15 04:04:00,
2013-09-14 21:09:00,69.3,63.1,29.68,North,0,1.0,0.0,81,0.00,,,0.00,meteohub,2013-09-15 04:09:00,
2013-09-14 21:14:00,69.6,64.9,29.68,WNW,293,2.0,2.0,85,0.00,,,0.00,meteohub,2013-09-15 04:14:00,
2013-09-14 21:19:00,69.4,65.1,29.69,West,270,2.0,2.0,86,0.00,,,0.00,meteohub,2013-09-15 04:19:00,
2013-09-14 21:24:00,69.3,64.9,29.68,West,270,2.0,2.0,86,0.00,,,0.00,meteohub,2013-09-15 04:24:00,
2013-09-14 21:29:00,69.3,65.3,29.68,West,270,3.0,3.0,87,0.00,,,0.00,meteohub,2013-09-15 04:29:00,
2013-09-14 21:34:00,69.3,65.3,29.69,West,270,3.0,3.0,87,0.00,,,0.00,meteohub,2013-09-15 04:34:00,
2013-09-14 21:39:00,69.1,65.7,29.69,NW,315,4.0,4.0,89,0.00,,,0.00,meteohub,2013-09-15 04:39:00,
2013-09-14 21:44:00,69.1,66.0,29.69,NW,315,4.0,7.0,90,0.00,,,0.00,meteohub,2013-09-15 04:44:00,
2013-09-14 21:49:00,68.9,66.2,29.69,WNW,293,5.0,7.0,91,0.00,,,0.00,meteohub,2013-09-15 04:49:00,
2013-09-14 21:54:00,68.7,66.4,29.69,NW,315,4.0,7.0,92,0.00,,,0.00,meteohub,2013-09-15 04:54:00,
2013-09-14 21:59:00,68.7,66.9,29.69,NW,315,5.0,6.0,94,0.00,,,0.00,meteohub,2013-09-15 04:59:00,
2013-09-14 22:04:00,68.5,67.1,29.69,NW,315,3.0,6.0,95,0.00,,,0.00,meteohub,2013-09-15 05:04:00,
2013-09-14 22:09:00,68.5,67.1,29.69,NW,315,3.0,6.0,95,0.00,,,0.00,meteohub,2013-09-15 05:09:00,
2013-09-14 22:14:00,68.4,67.1,29.70,West,270,4.0,6.0,96,0.00,,,0.00,meteohub,2013-09-15 05:14:00,
2013-09-14 22:19:00,68.2,66.9,29.70,West,270,2.0,5.0,96,0.00,,,0.00,meteohub,2013-09-15 05:19:00,
2013-09-14 22:24:00,68.0,66.7,29.70,West,270,2.0,4.0,96,0.00,,,0.00,meteohub,2013-09-15 05:24:00,
2013-09-14 22:29:00,67.8,66.9,29.70,SW,225,4.0,4.0,97,0.00,,,0.00,meteohub,2013-09-15 05:29:00,
2013-09-14 22:34:00,67.6,67.3,29.70,West,270,4.0,4.0,99,0.00,,,0.00,meteohub,2013-09-15 05:34:00,
2013-09-14 22:39:00,67.3,66.9,29.69,West,270,3.0,4.0,99,0.00,,,0.00,meteohub,2013-09-15 05:39:00,
2013-09-14 22:44:00,67.1,66.7,29.70,West,270,2.0,4.0,99,0.00,,,0.00,meteohub,2013-09-15 05:44:00,
2013-09-14 22:49:00,66.9,66.6,29.70,West,270,5.0,5.0,99,0.00,,,0.00,meteohub,2013-09-15 05:49:00,
2013-09-14 22:54:00,66.7,66.4,29.70,West,270,4.0,5.0,99,0.00,,,0.00,meteohub,2013-09-15 05:54:00,
2013-09-14 22:59:00,66.6,66.2,29.71,West,270,4.0,5.0,99,0.00,,,0.00,meteohub,2013-09-15 05:59:00,
2013-09-14 23:04:00,66.6,66.2,29.70,West,270,2.0,5.0,99,0.00,,,0.00,meteohub,2013-09-15 06:04:00,
2013-09-14 23:09:00,66.4,66.0,29.70,West,270,4.0,5.0,99,0.00,,,0.00,meteohub,2013-09-15 06:09:00,
2013-09-14 23:14:00,66.2,65.8,29.71,West,270,3.0,4.0,99,0.00,,,0.00,meteohub,2013-09-15 06:14:00,
2013-09-14 23:19:00,66.2,65.8,29.71,West,270,3.0,5.0,99,0.00,,,0.00,meteohub,2013-09-15 06:19:00,
2013-09-14 23:24:00,66.0,65.7,29.71,West,270,4.0,5.0,99,0.00,,,0.00,meteohub,2013-09-15 06:24:00,
2013-09-14 23:29:00,65.8,65.5,29.71,WNW,293,4.0,5.0,99,0.00,,,0.00,meteohub,2013-09-15 06:29:00,
2013-09-14 23:34:00,65.8,65.5,29.71,SW,225,2.0,5.0,99,0.00,,,0.00,meteohub,2013-09-15 06:34:00,
2013-09-14 23:39:00,65.7,65.3,29.71,West,270,3.0,5.0,99,0.00,,,0.00,meteohub,2013-09-15 06:39:00,
2013-09-14 23:44:00,65.7,65.3,29.71,West,270,3.0,5.0,99,0.00,,,0.00,meteohub,2013-09-15 06:44:00,
2013-09-14 23:49:00,65.5,65.1,29.71,West,270,2.0,5.0,99,0.00,,,0.00,meteohub,2013-09-15 06:49:00,
2013-09-14 23:54:00,65.5,65.1,29.71,West,270,2.0,4.0,99,0.00,,,0.00,meteohub,2013-09-15 06:54:00,
2013-09-14 23:59:00,65.3,64.9,29.71,West,270,3.0,4.0,99,0.00,,,0.00,meteohub,2013-09-15 06:59:00,